STARLINK-31431, 59002

Orbit data source: Space-Track

STARLINK-31431, 59002 is a payload satellite owned by SpaceX/Seattle (US) in LEO that was launched on Fri, 23 Feb 2024 UTC via an FALCON 9 launch vehicle from the Air Force Western Test Range (AFWTR). Payload-class satellites include a variety of spacecraft equipped with specific instruments for various scientific and technological missions. These include communications satellites like Starlink; space stations such as the ISS; scientific satellites like the Hubble; Earth observation satellites from companies like Planet Labs, Umbra, and HawkEye 360; GPS; miniature CubeSats for education and research; and military/defense satellites.

Loading next visibility...
Identifier
59002, 2024-036E
Orbit
LEO
Country
Flag of USUS
Related business
Manufacturer
SpaceX/Seattle
Mission
Operational Commercial Communications
Bus & Motor
STARLINK V2M, Unknown motor
Mass
730 kg wet, ~700 kg dry
Launch date (UTC)
2024-02-23 (2 years ago)
Launch vehicle
FALCON 9
Launch site
Air Force Western Test Range (AFWTR)
Object type
Payload
Rocket body
Debris
Shape & HBR
Box + 2 Pan, 17.7 m
Radar Cross Section
33.884 m², Large (>1 m²)

Expand to show TLE details & history
Last TLE update: 2 days ago

TLE from 2 days ago
0 STARLINK-31431
1 59002U 24036E   26171.45255257 -.00000301  00000-0  19648-5 0  9991
2 59002  53.1616 321.0245 0001290  99.2770 260.8377 15.30191976131058
Epoch: 2026-06-20T10:51Z
TLE epoch observation values (Epoch: 2026-06-20T10:51:40.542Z)
Latitude
0.00002°
Longitude
-110.56138°
Altitude
476.28 km
Speed
7.629 km/s
True Right ascension
21h 24m 05s
True Declination
0° 00' 00"
Sunlit
Object was in full shadow at epoch
Visualization orbit readout
Latitude
Unknown
Longitude
Unknown
Altitude
Unknown
Speed
Unknown
Apparent Right ascension
Unknown
Apparent Declination
Unknown
Sunlit
N/A
Visualization observer readout
Local Sidereal Time
23:08:45
Azimuth
Unknown
Elevation
Unknown
Doppler factor
Unknown
Orbital elements
Apogee altitude
476.379 km
Perigee altitude
474.611 km
Semi-major axis
6,853.632 km
Eccentricity
0.00013
Inclination
53.1616°
RAAN
321.0245°
Arg. of periapsis
99.277°
True anomaly
260.82311°
Mean anomaly
260.8377°
Eccentric anomaly
260.8304°
Mean motion
3.82527 °/min
Orbital period
94.11 mins
BSTAR
0.0000019648
Loading maneuver chart data...
Computing Atmospheric mass density...
Loading historical data...
Loading historical data...
Loading historical data...
Loading historical data...
Loading historical data...
Loading historical data...
Loading historical data...

Documentation

Showing up to 5 results
|